Temp_Advection
nan nan nan nan nan nan nan nan nan nan nan nan nan nan nan nan nan nan nan nan nan nan nan nan nan nan nan nan nan nan nan nan nan nan nan nan nan nan nan nan nan nan nan nan nan nan nan nan nan nan nan nan nan nan
nan 0 0 -0 -0 0 -0 -0 -0 -0 -0 -0 -1 0 1 0 -0 -0 1 1 0 0 -0 0 0 1 0 0 0 0 -0 -1 -0 -0 -0 0 0 0 0 0 -0 -0 -0 -0 0 -1 -0 0 -1 2 0 0 1 nan
nan 0 -0 -0 -0 -0 -0 -0 -0 -0 -0 -0 0 1 -0 -0 0 0 0 1 -0 0 -0 -0 -0 0 -0 0 1 0 0 1 0 0 0 0 -0 -0 0 -1 0 0 0 0 -0 -1 1 1 1 0 1 1 0 nan
nan 0 0 -0 -0 -0 -0 -0 -0 -0 -0 0 1 1 -0 -0 0 0 0 0 0 -0 -0 0 0 -1 -1 0 -0 0 1 0 0 0 1 0 -0 -0 -0 0 0 0 -0 -0 -1 1 1 -1 -1 1 1 1 0 nan
nan 0 1 0 0 0 0 0 0 0 1 1 1 1 1 0 0 -0 0 0 0 -0 -0 -0 -0 -1 -0 -0 -1 0 0 -0 0 -0 0 -1 -0 0 0 -0 -1 0 -0 -0 -1 0 -0 -0 1 2 1 1 1 nan
nan 0 0 0 0 0 0 0 0 0 0 0 -0 -0 0 0 -0 -0 -0 -0 -0 0 -0 -0 -0 0 0 -1 -1 -1 -0 0 -0 -0 -0 -0 0 0 -0 -1 -1 0 0 -0 0 1 1 0 0 1 1 0 1 nan
nan 0 0 0 1 0 0 0 1 0 0 0 0 -0 -0 -0 -0 -0 -0 -0 0 0 -0 -0 -0 -0 -0 -1 -0 0 0 0 -0 -0 -0 0 0 0 -0 -1 -1 1 2 1 1 1 0 1 0 0 1 0 2 nan
nan -0 0 0 0 0 0 0 0 0 0 0 1 0 0 1 1 -0 0 0 0 -0 -0 -0 -0 -0 -0 -0 0 0 0 1 0 0 0 -0 0 -0 -1 -1 1 2 1 1 0 1 0 0 1 0 0 1 2 nan
nan -0 -0 -0 -0 0 0 0 0 1 0 -0 -0 0 1 0 0 0 0 1 0 -0 -0 -0 -0 0 -0 0 0 0 1 0 0 0 -0 0 -0 -0 -0 0 1 1 1 1 1 1 1 1 1 1 1 2 1 nan
nan -0 0 -0 -0 -0 -0 -0 -0 0 0 -0 0 -0 -0 -0 0 0 0 -0 -0 -0 -0 -0 -0 -0 0 0 0 -0 -0 0 0 0 0 0 0 -1 -1 -1 -1 0 0 1 0 -0 0 0 0 1 1 1 1 nan
nan -0 -0 -0 0 -0 -0 -0 0 -0 -0 0 -0 -0 -0 -1 -0 -0 -0 -0 -0 -0 -0 -0 -0 0 -0 -0 -0 0 -0 0 -0 0 0 0 -0 -1 -1 -1 -0 -0 0 0 -0 -0 -0 0 0 0 1 1 1 nan
nan 0 -0 -0 0 0 0 -0 -0 0 0 0 0 0 0 -0 -0 -0 -0 -0 -0 -0 0 0 0 0 -0 0 0 0 -0 -0 0 -0 0 -0 -0 -1 -1 -1 -0 -0 -0 0 -0 1 1 1 1 1 0 0 0 nan
nan -0 -0 -0 -0 -0 0 0 -0 -0 0 0 0 -0 -0 -0 -0 -0 0 -0 0 0 0 0 0 0 0 -0 -0 0 0 -0 0 0 -0 -0 -1 -1 -1 -0 -0 -0 0 0 0 1 1 0 1 1 0 0 0 nan
nan -0 -0 -0 -0 0 -0 0 -1 -1 -0 0 0 0 -0 -0 -0 -0 -0 -0 -0 -0 -0 0 0 0 0 0 -0 0 -0 -0 0 -0 -0 -0 -1 -1 -0 -0 -0 -0 0 -0 -0 0 1 0 0 1 0 0 0 nan
nan -0 -0 -0 -0 -0 -0 0 1 -0 -1 -0 -0 -0 -0 -0 -1 -1 -1 -0 -0 -0 -0 0 0 0 0 -0 -0 0 -0 -0 -1 -1 -1 -0 -0 -0 -0 -0 -0 0 0 0 0 0 0 0 0 0 1 0 0 nan
nan -0 -0 0 -0 -0 -0 0 -0 -2 -1 -1 -1 -1 -2 -0 -1 -1 -1 -1 -0 -0 0 0 0 -0 -0 -0 -0 -1 -0 -1 -1 -0 -2 -1 -0 -0 -0 -0 -0 0 -0 0 0 0 0 0 0 0 0 0 0 nan
nan 0 -0 -0 0 -0 0 -0 -1 -1 -0 -0 -0 -2 -1 -1 -1 -1 -1 -1 -1 -0 0 -0 -1 -0 -0 -0 -0 -1 -1 -0 -1 -1 -1 -0 -0 -0 -0 -0 -0 0 0 0 0 0 -0 0 0 0 -0 0 1 nan
nan -0 -0 0 0 0 -1 -1 -0 -0 -1 -0 -0 -0 -0 -0 -0 -0 -0 0 0 0 -0 -0 -0 -1 -0 -0 -0 -0 -0 -1 -0 -1 -0 0 0 0 -0 -0 0 0 -0 -0 -0 0 0 0 0 -0 0 -0 -0 nan
nan 0 -0 -0 -0 -0 -0 -0 -0 -0 -0 -0 -0 0 -0 0 0 0 0 0 -0 0 0 -0 -1 -0 -0 -1 -1 -1 -0 -0 -0 -1 0 1 0 0 1 0 0 -0 -0 -0 -0 -1 -0 -0 -0 0 0 0 -0 nan
nan 0 0 0 -0 -0 -0 -0 -0 -0 -0 -0 -0 -0 -0 0 -0 -0 0 -0 -1 -1 -1 -0 -0 -1 -1 -1 -1 -0 -0 0 -0 -1 -1 -0 1 1 -0 -1 -0 0 -0 -0 -0 -0 -0 -0 -0 -0 -0 -0 -0 nan
nan -0 -0 -1 -0 -0 -0 -0 -0 -0 -0 -0 -0 -0 -0 -1 -1 -1 -0 -1 -1 -1 -1 -1 -1 -1 -1 -0 -0 -0 0 -0 -0 -0 -1 -0 0 0 0 0 0 -0 -1 -1 -0 -0 -0 -1 -0 0 -0 -0 -0 nan
nan 0 -0 -0 -0 -0 -0 -0 -0 0 0 -0 -0 -0 -0 -0 -0 -0 -1 -1 -1 -1 -0 -0 -0 -0 -1 -1 -0 -0 0 0 0 0 0 -0 -0 -0 -1 0 0 -1 -1 -0 0 -0 -0 -0 -0 -0 -0 -0 -0 nan
nan -0 -0 -0 -0 -1 -0 -0 -0 -0 -0 -0 -0 -0 -0 -0 -0 -0 -0 -1 -1 -0 -0 -0 -0 -0 -0 0 0 -0 -0 -0 -0 -0 0 0 0 0 0 -0 -1 -0 -0 -0 -0 -0 -0 -0 -0 -0 -0 -1 -1 nan
nan -1 -1 -0 -1 -0 -0 -0 -0 0 -0 0 -0 -0 -0 -0 -0 -0 -0 -0 -0 -0 -0 0 0 -0 -0 -0 -1 -0 0 0 -0 -1 -0 1 0 -0 -0 -0 -0 -1 -1 -0 -0 -1 -1 -1 -1 -1 -1 -1 -1 nan
nan -1 -0 -0 -0 0 -0 -0 -0 -0 -0 -0 -0 -0 -0 -0 -0 -0 -0 -0 -0 -0 -0 -0 0 0 -0 -1 0 1 0 -0 0 -0 -0 -1 -1 0 0 -0 -1 -1 -1 -0 -1 -1 -1 -1 -1 -1 -1 -1 -1 nan
nan -0 -0 -0 -0 -0 -0 -0 -0 -0 -0 -0 -0 -0 0 -0 -0 -0 -0 -0 -0 -0 -0 0 -0 -0 -0 -0 -0 0 0 0 0 -0 -0 -0 -0 -0 -0 -1 -0 -1 -1 -1 -1 -0 -0 -0 -0 -0 -0 -0 -1 nan
nan -0 -1 -0 0 0 -0 -0 0 0 -0 -0 -0 -0 -0 -0 -0 -0 -0 -0 0 0 -0 -0 -0 -0 -0 0 0 -0 0 0 -0 -0 -0 -0 -0 -0 -0 -0 -0 -0 -0 -0 -0 -0 -0 -0 -0 -0 0 0 -0 nan
nan -0 -0 -0 -0 -0 0 0 -0 -0 -0 -0 -0 -0 -0 -0 -0 -0 0 0 0 0 0 0 -0 -0 -0 -0 -0 -0 -0 -0 -0 -0 -0 -0 -0 -0 -0 -0 -0 -0 -0 -0 -0 -0 -0 -0 -0 -0 -0 0 0 nan
nan 0 -1 -0 0 -0 -0 -0 -0 -1 -0 -0 -0 -0 -0 -0 0 0 0 0 0 0 0 0 0 0 0 -0 -0 -0 -0 -0 -0 -0 -0 -0 -0 -0 -0 -0 -0 -0 -0 -0 -0 -0 -0 -0 -0 -0 -0 -0 -0 nan
nan -0 -0 -0 0 -0 -1 -0 -0 -0 -0 -0 -0 -0 -0 0 0 0 -0 0 0 0 0 -0 -0 -0 -0 -0 -0 -0 -0 -0 -0 -0 -0 -0 -0 -0 -0 -0 -0 -0 -0 -0 -0 -0 -0 -0 -0 -0 -0 -0 -0 nan
nan -0 -0 -0 -1 -1 -0 0 -0 -0 -1 -1 -0 -0 -0 -0 0 0 0 0 0 0 0 0 0 -0 -0 -0 -0 -0 -0 -0 -0 -0 -0 -0 -0 -0 -0 -0 -0 -0 -0 -0 -0 -0 -0 0 0 0 -0 -0 -0 nan
nan -0 0 -0 -0 -0 0 -0 -0 -0 -0 -0 -0 -0 -0 -0 -0 -0 -0 0 0 0 0 0 0 0 0 0 -0 -0 -0 -0 -0 -0 -0 -0 -0 0 0 -0 -0 -0 -0 -0 -0 -0 -0 -0 -0 -0 -0 -0 -0 nan
nan nan nan nan nan nan nan nan nan nan nan nan nan nan nan nan nan nan nan nan nan nan nan nan nan nan nan nan nan nan nan nan nan nan nan nan nan nan nan nan nan nan nan nan nan nan nan nan nan nan nan nan nan nan
Wind_Speed
19 11 11 3 4 3 15 17 32 37 43 47 48 47 66 66 64 47 37 31 29 12 4 7 19 24 32 29 16 22 12 6 8 8 7 5 4 6 8 12 6 8 9 5 8 7 11 14 12 11 14 5 9 10
17 9 9 11 12 16 22 23 29 35 42 44 46 56 71 67 52 43 31 30 22 9 5 4 10 14 19 39 30 29 18 20 12 7 6 5 3 1 8 10 7 8 6 3 9 6 4 29 20 25 10 10 10 12
15 7 12 13 14 19 21 23 23 32 39 41 52 65 65 68 52 38 28 29 25 10 4 8 2 4 20 30 25 21 22 16 21 14 5 4 5 6 5 10 12 7 6 5 2 10 12 15 23 11 14 13 9 10
21 15 13 13 14 17 18 19 24 29 37 47 59 60 56 60 46 41 29 25 23 7 3 3 8 13 15 26 25 28 19 15 12 18 7 3 3 7 7 10 10 10 9 9 12 13 8 14 20 21 14 14 14 12
21 23 21 18 18 18 20 37 41 46 52 53 49 51 48 55 35 34 24 18 15 8 1 3 8 15 17 18 25 28 13 21 9 6 3 4 5 3 2 2 10 10 8 8 8 17 11 19 13 18 20 19 15 17
19 22 23 25 26 29 31 31 33 37 39 42 43 44 42 42 39 34 8 21 17 10 2 3 5 16 23 20 25 33 30 19 9 9 5 7 3 7 4 7 15 19 15 20 10 11 14 14 10 10 16 16 16 17
18 21 24 25 34 33 36 42 45 42 43 45 46 47 44 41 29 14 8 11 22 15 6 3 3 8 21 20 22 21 26 24 20 15 6 7 5 7 3 8 8 16 20 16 18 12 8 11 6 8 12 12 16 17
18 19 23 26 28 29 32 37 41 41 42 40 36 33 29 28 23 8 5 13 23 9 3 3 2 4 17 7 4 11 12 16 15 12 5 7 5 3 6 11 18 15 9 12 12 13 10 7 7 7 10 12 17 16
20 21 21 24 27 30 33 35 37 37 36 35 34 31 28 15 6 8 9 23 15 5 5 2 3 1 4 4 4 6 9 3 6 5 5 8 6 6 3 8 9 11 11 10 12 10 9 8 10 12 13 16 17 22
24 23 23 23 25 29 31 33 33 33 35 36 34 11 6 8 15 24 17 10 3 2 2 2 2 2 2 4 3 3 2 2 2 5 10 4 6 4 8 8 9 7 8 10 9 7 10 11 12 13 14 18 22 20
22 19 18 25 28 29 34 36 37 36 37 20 5 4 10 20 9 3 4 4 6 4 8 7 15 3 5 3 2 2 3 2 3 2 7 3 2 6 17 11 7 8 5 5 7 5 8 10 14 16 17 18 19 25
22 21 24 32 34 32 31 31 32 25 12 9 13 17 17 6 3 2 3 4 4 3 5 4 5 8 6 4 2 3 2 2 0 2 2 3 3 19 15 10 6 3 3 6 4 4 7 10 13 17 19 22 24 25
23 29 33 36 36 32 30 29 25 19 18 9 11 6 3 1 2 4 7 3 3 2 3 5 3 9 5 1 2 2 2 1 0 3 3 4 16 23 17 8 4 2 2 1 3 7 11 14 17 20 22 21 22 27
22 27 31 32 37 26 19 18 18 18 7 2 3 4 3 1 3 2 3 3 2 4 5 3 3 1 1 2 0 2 2 1 3 3 4 7 23 21 13 7 4 6 7 9 11 13 16 18 20 21 23 27 29 31
19 20 25 32 29 11 3 7 14 12 6 6 5 4 4 5 7 8 6 2 4 4 2 3 4 3 3 3 4 2 4 5 6 4 5 20 27 13 10 8 10 12 14 16 16 19 22 24 26 28 27 27 28 27
18 17 14 11 8 4 5 6 9 13 6 6 10 6 14 4 9 13 15 11 11 6 3 3 2 4 6 3 5 7 4 6 5 6 19 22 13 13 13 13 15 16 19 20 21 23 26 28 29 29 25 23 21 19
13 7 9 11 13 12 8 9 10 9 7 6 6 24 16 8 9 15 17 15 12 3 2 3 6 7 3 5 5 5 4 4 12 14 16 21 16 15 16 18 19 20 22 23 24 24 24 23 22 23 25 21 18 16
11 13 18 18 16 15 20 11 7 8 8 10 5 12 13 14 15 11 14 19 3 5 6 5 6 8 6 4 3 5 6 11 10 13 17 19 19 20 21 23 23 24 25 24 23 22 21 19 19 18 16 15 15 14
20 22 18 14 18 9 6 6 7 6 12 6 14 8 5 17 22 20 21 17 23 17 10 7 7 5 4 6 7 9 8 7 7 12 19 22 23 23 24 24 23 23 22 20 19 20 19 18 17 15 14 11 12 10
20 15 19 17 8 6 6 6 7 7 4 5 7 18 25 19 20 28 32 28 23 12 11 6 5 10 7 9 9 8 7 7 8 13 18 21 22 23 23 23 24 22 23 22 23 22 20 20 17 14 12 10 9 7
21 16 16 21 20 12 8 5 6 6 7 6 4 10 11 23 35 31 31 26 22 10 8 14 14 14 13 14 14 14 17 17 17 16 14 18 21 23 24 23 23 23 23 22 21 21 19 18 15 12 9 8 7 5
21 15 11 9 7 7 9 10 7 5 5 5 6 7 8 9 13 20 20 20 12 21 12 13 13 12 16 19 18 19 19 21 22 23 23 22 23 23 23 21 21 22 21 19 18 17 15 13 11 9 7 7 7 7
12 5 6 7 7 7 4 6 5 5 3 3 3 4 5 5 7 9 8 11 9 14 12 12 14 15 16 16 18 19 18 18 20 20 21 21 21 20 20 20 18 18 18 17 15 14 13 12 11 10 10 10 10 11
7 6 6 6 8 4 5 6 5 4 5 3 3 4 4 5 5 7 4 5 8 9 10 10 9 11 12 15 17 17 16 15 17 18 17 16 18 18 18 17 17 16 15 13 12 12 12 12 13 13 13 13 13 13
5 9 6 7 6 4 4 3 4 4 4 4 3 4 3 3 3 3 3 3 6 7 9 9 10 11 12 12 12 15 15 14 14 16 16 15 13 12 13 13 13 13 12 11 12 12 12 12 12 12 11 11 12 12
7 10 6 5 4 4 3 4 4 4 3 3 4 3 3 3 4 4 3 4 4 4 5 6 6 8 9 9 8 10 11 11 11 13 13 12 11 10 9 8 7 10 10 10 10 10 10 10 10 10 9 10 12 12
5 6 7 8 6 8 6 8 7 5 5 4 2 2 2 4 3 3 6 4 5 7 7 7 7 8 9 11 11 11 10 9 9 9 9 9 9 9 8 8 8 9 10 10 10 10 10 10 10 11 11 11 11 13
7 7 5 7 10 10 4 4 4 4 3 3 2 4 3 2 3 4 4 10 8 8 8 8 9 9 9 8 7 7 6 7 8 9 9 10 9 10 9 9 9 10 10 10 11 11 11 11 11 11 12 12 12 12
8 5 6 7 7 9 9 5 4 4 3 3 3 2 3 3 5 8 9 9 6 4 4 5 6 7 7 6 5 5 5 6 6 6 6 5 5 8 9 9 9 10 10 10 11 11 11 11 11 11 11 11 12 12
5 5 6 6 5 6 7 5 5 6 7 7 7 8 8 7 9 11 9 6 4 3 3 4 5 5 4 2 2 4 6 8 8 7 6 6 6 7 8 10 10 10 10 10 9 9 9 9 10 10 10 11 11 12
6 6 8 8 6 5 12 17 15 13 11 10 11 9 8 6 8 9 8 6 4 3 3 3 3 2 0 2 4 6 7 8 8 7 7 6 7 8 10 11 11 10 10 10 10 10 10 10 11 11 12 12 13 14
6 6 7 4 5 12 5 2 3 4 4 4 3 4 5 4 4 8 8 6 4 4 4 3 1 2 4 4 5 5 6 6 7 7 7 7 8 9 11 11 11 10 10 10 10 10 11 11 12 12 13 13 14 15
10 14 10 7 6 6 5 4 3 4 3 3 2 3 2 3 3 7 9 8 7 6 4 2 3 2 2 4 5 6 6 7 8 8 8 9 10 10 11 11 11 11 10 10 11 11 11 12 12 13 14 15 15 16
Wind_Direction
344 344 0 78 118 138 172 140 170 177 179 178 181 188 187 183 176 179 186 181 193 193 185 197 213 193 189 200 189 178 156 165 187 210 209 184 213 201 212 194 179 186 173 180 212 218 241 150 143 204 229 214 206 209
357 20 59 78 115 117 134 141 150 158 164 174 179 180 177 172 168 172 159 186 184 156 126 178 191 196 201 194 193 178 188 176 172 189 206 210 189 176 199 216 207 237 220 226 210 214 181 183 211 218 220 226 205 206
27 73 80 92 114 123 131 146 160 164 166 176 175 179 175 172 169 171 159 167 177 182 229 260 289 209 203 201 198 184 194 182 196 193 166 219 211 175 190 220 221 225 185 209 230 246 233 215 228 224 219 214 203 205
50 69 90 116 119 122 135 149 162 173 170 171 174 172 171 173 171 174 154 169 172 153 228 254 263 251 239 208 217 207 211 191 182 197 210 185 202 219 227 235 219 227 161 215 244 260 280 256 233 228 218 217 219 202
61 70 99 115 119 126 135 143 152 151 157 161 160 159 160 166 163 170 178 169 168 178 107 279 237 249 217 217 221 210 200 193 165 162 175 217 209 192 213 270 228 194 199 207 232 247 234 261 250 219 221 225 219 191
69 79 86 90 109 121 133 138 134 149 145 148 151 154 153 153 161 157 154 194 196 184 95 279 235 206 240 235 219 210 214 218 209 210 210 228 202 205 235 242 241 225 230 231 243 241 231 253 253 223 211 209 209 197
79 89 90 97 118 117 123 121 135 142 144 145 149 155 163 172 166 155 155 177 188 171 179 255 251 214 224 244 192 197 206 212 217 226 226 231 198 206 233 249 278 239 232 226 235 239 253 248 260 219 203 197 204 188
89 97 104 106 114 119 119 123 124 128 131 133 136 133 137 147 148 149 161 167 171 158 180 260 216 223 186 177 141 184 184 197 205 213 196 213 191 224 250 257 250 248 241 231 229 231 244 251 210 183 190 187 181 166
91 106 113 115 118 117 121 123 123 124 126 127 129 133 140 150 151 142 173 163 152 179 157 215 306 13 141 126 137 147 165 181 178 192 209 194 196 220 253 265 251 227 218 223 222 220 220 215 195 187 185 172 172 162
80 103 122 125 123 128 127 130 134 135 133 132 131 123 153 165 157 130 130 162 205 330 267 278 222 256 224 164 152 121 129 163 182 188 158 215 228 73 7 320 308 266 238 225 173 193 197 192 183 169 174 175 176 167
81 91 99 133 136 129 133 136 138 139 140 131 122 86 125 162 151 168 126 157 162 207 211 210 207 236 292 183 136 218 169 132 200 178 180 163 87 346 336 322 326 266 223 242 253 211 198 200 175 163 166 169 166 173
81 77 102 129 135 134 134 137 138 137 142 106 105 118 129 189 201 159 147 139 211 241 193 172 163 182 246 190 160 141 163 162 205 303 98 75 21 344 351 346 335 331 274 257 254 170 165 157 163 165 162 163 165 166
91 90 108 125 129 136 142 148 153 162 157 121 122 149 199 167 199 205 183 182 197 254 167 153 146 180 193 103 75 138 159 78 221 50 73 52 347 350 348 347 7 328 269 205 117 133 143 147 154 164 155 156 152 149
102 108 119 136 140 118 110 119 168 185 219 75 55 85 332 56 28 11 4 13 360 290 323 89 86 100 127 77 268 96 78 39 80 62 54 1 342 345 357 12 58 81 97 112 114 127 126 129 130 132 137 140 140 138
115 114 128 149 160 190 247 9 28 45 61 46 13 53 52 7 10 342 344 250 13 287 235 139 107 85 37 69 18 84 65 64 38 28 351 332 331 357 28 62 90 101 108 109 116 117 118 123 122 120 125 130 132 133
136 131 116 124 148 201 350 8 18 50 52 48 41 358 351 9 2 6 355 350 352 345 48 32 109 87 50 37 49 22 52 44 14 341 329 340 11 30 49 68 83 92 95 99 103 110 115 116 116 115 120 124 128 134
146 144 164 133 114 113 109 61 46 45 38 38 40 22 20 11 339 333 330 315 323 345 62 49 51 42 23 53 51 23 43 359 334 349 359 29 49 59 71 79 84 89 95 100 106 107 107 109 113 119 119 121 129 129
137 147 145 137 114 108 81 59 74 58 62 27 44 21 29 21 358 354 350 4 60 82 56 66 72 40 39 46 49 13 350 342 23 26 32 51 71 85 90 91 91 91 94 96 97 102 107 114 116 108 116 117 116 113
140 141 147 154 110 82 77 59 63 79 44 56 34 26 37 27 28 27 29 42 60 76 91 68 56 44 50 30 6 360 359 3 28 47 54 65 76 82 88 92 94 93 93 93 95 95 96 97 96 102 105 105 105 103
148 144 133 114 95 80 81 60 71 83 68 77 59 55 51 43 34 38 39 41 53 58 51 52 49 40 43 26 21 25 26 53 94 70 58 59 67 79 81 83 84 88 91 94 95 95 94 93 92 94 95 96 94 89
137 119 118 97 70 67 83 72 78 111 124 75 59 48 54 40 37 33 35 39 52 47 66 64 66 58 56 53 51 56 62 74 71 78 75 70 71 76 78 81 86 87 85 82 82 82 83 80 79 76 72 70 60 44
110 100 88 72 78 71 64 40 85 92 79 92 48 41 36 23 22 27 34 45 58 41 53 57 60 65 60 57 57 63 69 76 80 83 83 83 74 73 73 72 75 75 74 71 71 70 69 66 60 50 37 29 13 354
122 67 58 49 77 67 61 42 69 37 69 69 61 57 48 46 38 31 63 42 52 30 49 63 69 73 75 74 75 72 70 75 74 73 73 75 75 73 72 71 71 71 68 63 60 57 52 44 36 26 18 11 4 356
98 58 42 51 55 75 66 39 42 52 56 40 56 66 51 50 54 66 66 50 28 39 53 61 76 78 75 75 69 70 66 71 79 79 72 72 72 69 67 65 61 60 57 51 42 35 25 17 11 5 3 1 358 358
76 20 41 52 45 80 67 51 29 57 64 43 75 66 57 55 74 76 83 89 48 54 58 65 76 79 81 79 73 74 77 74 74 76 71 66 62 57 50 44 38 33 28 21 18 14 10 8 6 3 1 360 358 357
71 21 40 37 43 66 44 71 51 51 53 66 59 63 53 69 74 81 92 121 93 64 70 75 83 89 86 86 89 84 79 76 74 77 74 64 56 48 38 31 24 10 16 18 15 10 4 0 357 355 353 348 346 347
71 51 50 40 79 89 89 70 62 59 58 47 47 49 55 71 88 96 124 99 109 97 94 103 100 105 106 106 103 92 82 79 75 66 52 36 26 24 27 29 22 13 11 9 6 3 358 356 353 351 350 350 348 348
69 48 65 25 65 51 88 69 52 53 59 35 66 45 67 66 105 125 127 138 122 101 95 101 110 114 114 112 100 80 65 50 36 21 7 5 6 11 13 13 11 7 4 359 357 356 357 357 357 356 356 355 353 350
59 72 76 49 63 57 44 42 62 58 25 33 90 92 96 90 121 122 135 142 126 110 110 114 116 113 109 101 86 63 40 24 12 0 4 6 6 355 1 3 1 356 354 352 352 353 352 354 354 352 352 353 352 351
52 47 88 55 52 48 25 39 78 84 73 87 99 105 96 102 133 147 151 157 147 132 122 127 128 123 114 92 21 356 350 353 356 359 359 354 351 351 355 354 352 352 354 356 356 354 352 350 349 349 349 348 347 345
81 68 71 61 76 78 102 92 83 81 80 74 94 103 119 131 144 153 159 163 162 162 149 144 141 135 9 331 331 333 335 343 348 352 354 351 350 350 349 348 348 349 350 350 350 350 349 349 348 347 346 344 342 341
50 68 109 104 125 155 106 107 90 86 80 73 75 109 121 128 159 186 190 186 185 178 173 173 204 268 299 311 323 330 333 338 343 347 349 347 345 342 341 341 340 340 341 341 341 341 341 340 339 338 337 337 336 335
82 87 93 103 126 177 187 141 104 102 91 104 115 137 141 151 152 194 189 190 185 182 184 232 275 274 306 322 324 325 330 336 339 341 343 341 340 339 338 338 335 332 331 331 330 330 330 330 330 330 330 330 329 329
Height
1224 1218 1212 1207 1205 1203 1202 1204 1211 1221 1235 1248 1263 1276 1290 1304 1322 1336 1346 1356 1365 1369 1373 1375 1378 1381 1389 1396 1396 1400 1411 1417 1424 1426 1421 1418 1420 1412 1411 1410 1420 1423 1426 1433 1429 1436 1431 1413 1421 1417 1408 1412 1414 1416
1226 1221 1216 1213 1212 1212 1213 1217 1223 1231 1242 1253 1265 1277 1289 1307 1323 1336 1346 1354 1360 1367 1371 1374 1376 1379 1383 1390 1394 1396 1388 1401 1408 1414 1415 1410 1417 1417 1407 1412 1409 1417 1410 1408 1411 1405 1400 1403 1400 1403 1405 1407 1409 1411
1230 1225 1223 1220 1219 1220 1223 1227 1232 1239 1248 1258 1268 1280 1295 1310 1323 1334 1343 1352 1361 1369 1375 1376 1377 1381 1383 1384 1389 1391 1392 1395 1399 1403 1407 1406 1408 1406 1410 1404 1402 1406 1408 1407 1409 1395 1397 1399 1401 1400 1401 1404 1405 1408
1236 1231 1228 1227 1227 1228 1230 1233 1238 1243 1251 1262 1274 1287 1301 1316 1327 1337 1346 1356 1365 1374 1377 1377 1379 1380 1380 1382 1384 1387 1392 1394 1397 1401 1403 1405 1405 1400 1397 1395 1397 1394 1402 1397 1395 1394 1399 1395 1394 1396 1398 1399 1401 1404
1245 1241 1237 1236 1235 1237 1238 1241 1246 1253 1261 1272 1285 1298 1310 1319 1330 1340 1353 1360 1367 1373 1374 1377 1376 1375 1373 1376 1381 1385 1387 1390 1392 1396 1400 1400 1397 1400 1401 1399 1389 1392 1390 1392 1386 1384 1390 1387 1388 1390 1393 1395 1399 1401
1254 1251 1249 1248 1247 1248 1251 1255 1260 1267 1276 1286 1296 1307 1316 1326 1335 1346 1359 1363 1365 1369 1376 1375 1369 1371 1375 1376 1377 1380 1383 1388 1390 1389 1392 1392 1392 1395 1395 1384 1381 1383 1383 1383 1382 1384 1385 1385 1385 1387 1387 1389 1394 1399
1263 1261 1260 1260 1260 1262 1265 1269 1273 1281 1289 1298 1306 1315 1325 1334 1344 1353 1356 1357 1365 1373 1378 1375 1365 1363 1366 1364 1370 1374 1379 1383 1388 1390 1388 1388 1390 1391 1390 1382 1378 1379 1379 1380 1379 1381 1381 1382 1383 1382 1385 1384 1393 1396
1270 1270 1270 1271 1272 1275 1279 1282 1287 1294 1301 1309 1318 1327 1335 1342 1349 1354 1355 1358 1363 1370 1372 1368 1365 1363 1362 1362 1366 1369 1374 1379 1381 1382 1384 1384 1387 1388 1379 1373 1375 1377 1377 1377 1377 1377 1379 1379 1380 1379 1384 1383 1393 1398
1277 1278 1280 1281 1284 1287 1291 1295 1300 1306 1313 1320 1327 1335 1343 1347 1351 1353 1354 1360 1365 1370 1369 1368 1358 1351 1355 1360 1363 1367 1370 1374 1375 1375 1376 1379 1378 1375 1371 1372 1372 1373 1373 1374 1374 1375 1376 1377 1378 1375 1379 1382 1394 1391
1286 1285 1286 1289 1293 1296 1301 1305 1310 1315 1322 1328 1335 1340 1345 1348 1351 1355 1364 1366 1366 1365 1366 1362 1364 1362 1361 1361 1364 1365 1367 1369 1370 1369 1372 1373 1368 1376 1377 1377 1376 1375 1374 1373 1373 1375 1374 1375 1377 1373 1378 1383 1386 1396
1294 1293 1293 1295 1300 1305 1309 1313 1317 1322 1328 1333 1337 1340 1345 1350 1353 1354 1357 1361 1365 1366 1362 1358 1360 1359 1359 1358 1359 1362 1364 1368 1363 1364 1363 1369 1375 1383 1380 1379 1375 1376 1372 1375 1375 1371 1372 1372 1372 1374 1380 1386 1389 1391
1302 1300 1297 1301 1308 1314 1318 1323 1327 1331 1335 1337 1338 1344 1349 1351 1350 1351 1353 1357 1356 1351 1350 1352 1353 1357 1357 1355 1357 1362 1361 1366 1357 1363 1362 1373 1389 1387 1382 1378 1376 1375 1375 1378 1376 1370 1371 1373 1374 1377 1381 1386 1388 1392
1312 1310 1311 1314 1319 1322 1327 1330 1333 1336 1340 1342 1344 1348 1348 1351 1351 1346 1346 1346 1347 1346 1348 1349 1352 1354 1355 1355 1357 1359 1357 1359 1365 1366 1377 1392 1394 1388 1384 1380 1377 1376 1376 1375 1375 1374 1372 1375 1378 1380 1383 1387 1391 1397
1320 1321 1324 1325 1328 1332 1333 1338 1342 1343 1343 1342 1344 1348 1348 1347 1350 1350 1352 1350 1352 1348 1347 1348 1350 1352 1354 1356 1358 1354 1365 1364 1366 1372 1387 1397 1396 1391 1387 1384 1381 1379 1378 1378 1378 1380 1379 1380 1384 1386 1390 1394 1399 1405
1327 1329 1332 1334 1335 1333 1333 1336 1337 1339 1342 1347 1349 1352 1356 1358 1357 1356 1354 1353 1353 1350 1349 1350 1351 1353 1356 1357 1362 1360 1365 1378 1388 1399 1404 1402 1397 1394 1391 1389 1388 1387 1385 1385 1387 1387 1387 1391 1393 1394 1399 1404 1409 1414
1332 1334 1337 1340 1341 1341 1342 1343 1343 1342 1350 1357 1366 1365 1364 1360 1359 1357 1354 1351 1351 1350 1350 1351 1353 1358 1367 1371 1375 1387 1383 1402 1411 1414 1411 1404 1401 1398 1395 1394 1393 1393 1393 1393 1395 1396 1398 1400 1402 1404 1409 1414 1418 1421
1336 1337 1339 1343 1345 1346 1347 1347 1351 1359 1366 1370 1377 1376 1374 1373 1372 1369 1363 1358 1352 1353 1354 1355 1365 1378 1378 1384 1399 1410 1417 1423 1423 1419 1414 1409 1405 1402 1401 1400 1400 1400 1400 1401 1404 1405 1406 1409 1412 1414 1417 1422 1424 1427
1337 1339 1343 1346 1347 1349 1348 1356 1364 1373 1380 1385 1385 1387 1385 1383 1379 1373 1368 1360 1356 1356 1360 1373 1384 1394 1402 1407 1418 1427 1427 1425 1423 1421 1418 1414 1411 1409 1407 1407 1408 1408 1409 1411 1413 1414 1416 1418 1420 1423 1425 1427 1428 1431
1339 1343 1346 1347 1348 1349 1357 1367 1371 1383 1391 1391 1393 1390 1388 1386 1382 1376 1369 1364 1361 1361 1369 1387 1403 1417 1425 1430 1431 1430 1430 1428 1428 1426 1422 1420 1418 1416 1416 1415 1416 1416 1417 1419 1420 1421 1423 1425 1428 1430 1431 1433 1434 1436
1343 1345 1349 1350 1351 1354 1363 1374 1378 1386 1393 1397 1396 1395 1392 1390 1388 1381 1376 1372 1369 1372 1393 1415 1430 1437 1436 1436 1435 1433 1431 1429 1430 1429 1428 1427 1426 1424 1423 1423 1423 1424 1426 1427 1428 1429 1430 1432 1434 1436 1436 1438 1438 1439
1347 1350 1352 1353 1354 1359 1370 1378 1383 1389 1394 1396 1398 1397 1398 1397 1390 1389 1387 1390 1387 1410 1427 1438 1440 1440 1439 1439 1437 1435 1433 1432 1432 1433 1435 1433 1432 1431 1431 1431 1431 1432 1433 1434 1435 1436 1437 1438 1440 1440 1441 1440 1441 1441
1350 1353 1355 1356 1361 1369 1378 1383 1387 1391 1395 1400 1401 1402 1405 1407 1408 1410 1415 1412 1428 1441 1443 1445 1445 1444 1443 1442 1442 1441 1441 1439 1438 1438 1438 1438 1438 1438 1438 1439 1439 1439 1440 1441 1441 1442 1442 1443 1442 1442 1444 1442 1441 1441
1354 1355 1356 1360 1365 1376 1390 1389 1391 1396 1398 1403 1406 1410 1416 1420 1424 1426 1434 1443 1450 1452 1451 1451 1450 1449 1448 1448 1447 1447 1448 1447 1446 1446 1446 1445 1445 1446 1446 1445 1446 1446 1446 1446 1446 1446 1445 1445 1444 1444 1443 1442 1440 1439
1357 1359 1364 1369 1377 1388 1391 1395 1398 1401 1404 1407 1410 1417 1424 1428 1432 1439 1450 1457 1460 1457 1456 1455 1455 1455 1455 1455 1453 1453 1453 1453 1452 1452 1452 1452 1451 1450 1450 1450 1450 1449 1449 1449 1448 1447 1446 1445 1444 1443 1441 1440 1439 1439
1362 1376 1377 1383 1388 1392 1399 1404 1407 1406 1413 1415 1418 1425 1431 1433 1437 1447 1455 1462 1462 1461 1460 1459 1459 1459 1460 1460 1459 1458 1457 1457 1456 1455 1455 1455 1456 1456 1455 1454 1453 1452 1451 1451 1449 1448 1447 1446 1445 1445 1444 1443 1442 1440
1378 1388 1388 1391 1396 1396 1404 1409 1413 1417 1419 1422 1428 1433 1434 1437 1444 1452 1458 1462 1463 1463 1462 1462 1463 1463 1462 1463 1463 1462 1462 1461 1461 1460 1460 1460 1459 1459 1458 1457 1456 1454 1453 1452 1452 1451 1449 1448 1447 1445 1444 1442 1440 1438
1388 1395 1397 1400 1402 1404 1412 1417 1421 1422 1426 1429 1434 1436 1437 1443 1451 1459 1462 1463 1463 1463 1463 1462 1464 1464 1464 1464 1464 1464 1465 1464 1464 1464 1463 1462 1461 1460 1459 1458 1456 1456 1454 1453 1451 1450 1449 1447 1445 1443 1441 1439 1437 1435
1396 1400 1403 1407 1408 1412 1418 1424 1427 1432 1435 1438 1438 1444 1446 1450 1455 1461 1462 1463 1464 1464 1464 1464 1465 1465 1465 1466 1466 1466 1466 1466 1465 1464 1463 1462 1461 1459 1458 1457 1456 1454 1453 1452 1450 1448 1447 1445 1443 1441 1440 1438 1436 1434
1403 1407 1410 1415 1416 1423 1430 1433 1436 1440 1441 1441 1443 1448 1453 1456 1458 1461 1462 1463 1465 1466 1466 1466 1466 1466 1467 1467 1467 1467 1467 1466 1466 1465 1463 1462 1461 1460 1458 1457 1455 1454 1452 1450 1448 1447 1445 1444 1442 1440 1439 1437 1435 1433
1411 1412 1415 1423 1428 1436 1440 1440 1441 1441 1442 1443 1446 1451 1455 1458 1459 1461 1462 1464 1465 1466 1466 1466 1467 1467 1468 1468 1468 1467 1466 1465 1464 1464 1462 1461 1460 1459 1457 1456 1454 1452 1451 1449 1448 1446 1445 1443 1441 1439 1438 1436 1434 1432
1414 1417 1423 1431 1439 1444 1444 1444 1445 1445 1446 1448 1450 1453 1457 1460 1461 1462 1463 1464 1465 1466 1466 1467 1467 1467 1467 1467 1467 1466 1465 1464 1463 1462 1461 1460 1459 1457 1456 1454 1453 1451 1450 1448 1447 1445 1443 1441 1439 1438 1436 1433 1431 1429
1420 1423 1429 1438 1446 1448 1447 1449 1449 1451 1453 1455 1457 1458 1460 1461 1462 1462 1463 1464 1465 1466 1466 1467 1467 1467 1466 1466 1465 1464 1464 1463 1462 1461 1459 1458 1457 1456 1454 1453 1451 1449 1448 1446 1444 1443 1441 1439 1437 1435 1433 1431 1429 1426
1429 1430 1433 1439 1445 1447 1449 1450 1451 1454 1456 1458 1459 1459 1459 1460 1461 1461 1462 1463 1465 1465 1466 1466 1466 1465 1465 1465 1464 1463 1462 1461 1460 1459 1458 1457 1455 1454 1452 1450 1448 1447 1445 1444 1442 1441 1439 1437 1435 1433 1431 1428 1426 1423